Time,TemperatureF,DewpointF,PressureIn,WindDirection,WindDirectionDegrees,WindSpeedMPH,WindSpeedGustMPH,Humidity,HourlyPrecipIn,Conditions,Clouds,dailyrainin,SoftwareType,DateUTC
2013-04-13 00:05:00,62.1,48.0,29.90,SE,138,3.0,5.0,60,0.00,,,0.00,Wunderground v.1.15,2013-04-13 05:05:00,
2013-04-13 00:10:00,62.0,48.0,29.90,SE,141,4.0,7.0,60,0.00,,,0.00,Wunderground v.1.15,2013-04-13 05:10:00,
2013-04-13 00:20:00,61.6,48.0,29.90,SE,141,3.0,3.0,61,0.00,,,0.00,Wunderground v.1.15,2013-04-13 05:20:00,
2013-04-13 00:25:00,61.5,47.9,29.90,SE,141,3.0,4.0,61,0.00,,,0.00,Wunderground v.1.15,2013-04-13 05:25:00,
2013-04-13 00:35:00,61.0,47.9,29.90,SE,143,3.0,5.0,62,0.00,,,0.00,Wunderground v.1.15,2013-04-13 05:35:00,
2013-04-13 00:40:00,60.9,48.2,29.90,SE,143,3.0,3.0,63,0.00,,,0.00,Wunderground v.1.15,2013-04-13 05:40:00,
2013-04-13 00:50:00,60.4,47.7,29.90,SE,144,3.0,6.0,63,0.00,,,0.00,Wunderground v.1.15,2013-04-13 05:50:00,
2013-04-13 00:55:00,60.2,47.1,29.90,SE,144,2.0,8.0,62,0.00,,,0.00,Wunderground v.1.15,2013-04-13 05:55:00,
2013-04-13 01:05:00,59.9,46.8,29.90,SE,144,3.0,4.0,62,0.00,,,0.00,Wunderground v.1.15,2013-04-13 06:05:00,
2013-04-13 01:10:00,59.8,46.7,29.90,SE,144,3.0,3.0,62,0.00,,,0.00,Wunderground v.1.15,2013-04-13 06:10:00,
2013-04-13 01:20:00,59.5,45.6,29.90,SE,144,3.0,5.0,60,0.00,,,0.00,Wunderground v.1.15,2013-04-13 06:20:00,
2013-04-13 01:25:00,59.3,45.4,29.90,SE,144,2.0,5.0,60,0.00,,,0.00,Wunderground v.1.15,2013-04-13 06:25:00,
2013-04-13 01:35:00,59.0,45.6,29.90,SE,144,2.0,2.0,61,0.00,,,0.00,Wunderground v.1.15,2013-04-13 06:35:00,
2013-04-13 01:40:00,58.9,45.0,29.90,SE,144,2.0,2.0,60,0.00,,,0.00,Wunderground v.1.15,2013-04-13 06:40:00,
2013-04-13 01:50:00,58.4,45.4,29.90,SE,144,2.0,2.0,62,0.00,,,0.00,Wunderground v.1.15,2013-04-13 06:50:00,
2013-04-13 01:55:00,58.3,45.3,29.90,SE,144,1.0,6.0,62,0.00,,,0.00,Wunderground v.1.15,2013-04-13 06:55:00,
2013-04-13 02:05:00,57.8,44.9,29.89,SE,144,1.0,1.0,62,0.00,,,0.00,Wunderground v.1.15,2013-04-13 07:05:00,
2013-04-13 02:10:00,57.5,45.0,29.89,SE,144,1.0,5.0,63,0.00,,,0.00,Wunderground v.1.15,2013-04-13 07:10:00,
2013-04-13 02:25:00,56.7,44.7,29.89,SE,144,0.0,1.0,64,0.00,,,0.00,Wunderground v.1.15,2013-04-13 07:25:00,
2013-04-13 02:35:00,56.3,45.1,29.89,SE,144,0.0,2.0,66,0.00,,,0.00,Wunderground v.1.15,2013-04-13 07:35:00,
2013-04-13 02:40:00,56.0,45.2,29.89,SE,144,1.0,1.0,67,0.00,,,0.00,Wunderground v.1.15,2013-04-13 07:40:00,
2013-04-13 02:50:00,55.6,44.8,29.89,SE,144,0.0,2.0,67,0.00,,,0.00,Wunderground v.1.15,2013-04-13 07:50:00,
2013-04-13 02:55:00,55.3,44.9,29.89,SE,144,1.0,2.0,68,0.00,,,0.00,Wunderground v.1.15,2013-04-13 07:55:00,
2013-04-13 03:05:00,55.0,45.0,29.88,SE,144,1.0,2.0,69,0.00,,,0.00,Wunderground v.1.15,2013-04-13 08:05:00,
2013-04-13 03:10:00,55.0,45.0,29.88,SE,144,1.0,1.0,69,0.00,,,0.00,Wunderground v.1.15,2013-04-13 08:10:00,
2013-04-13 03:20:00,54.7,45.1,29.88,SE,144,1.0,3.0,70,0.00,,,0.00,Wunderground v.1.15,2013-04-13 08:20:00,
2013-04-13 03:25:00,54.5,45.3,29.87,SE,144,1.0,3.0,71,0.00,,,0.00,Wunderground v.1.15,2013-04-13 08:25:00,
2013-04-13 03:35:00,54.4,45.2,29.87,SE,144,0.0,1.0,71,0.00,,,0.00,Wunderground v.1.15,2013-04-13 08:35:00,
2013-04-13 03:40:00,54.2,45.4,29.87,SE,144,0.0,1.0,72,0.00,,,0.00,Wunderground v.1.15,2013-04-13 08:40:00,
2013-04-13 03:50:00,54.1,45.6,29.87,SE,144,1.0,1.0,73,0.00,,,0.00,Wunderground v.1.15,2013-04-13 08:50:00,
2013-04-13 03:55:00,53.9,45.4,29.87,SE,144,1.0,1.0,73,0.00,,,0.00,Wunderground v.1.15,2013-04-13 08:55:00,
2013-04-13 04:05:00,53.9,45.8,29.87,SE,144,1.0,2.0,74,0.00,,,0.00,Wunderground v.1.15,2013-04-13 09:05:00,
2013-04-13 04:10:00,53.8,45.7,29.87,SE,144,1.0,2.0,74,0.00,,,0.00,Wunderground v.1.15,2013-04-13 09:10:00,
2013-04-13 04:20:00,53.6,45.5,29.87,SE,144,1.0,1.0,74,0.00,,,0.00,Wunderground v.1.15,2013-04-13 09:20:00,
2013-04-13 04:25:00,53.6,45.9,29.87,SE,144,1.0,2.0,75,0.00,,,0.00,Wunderground v.1.15,2013-04-13 09:25:00,
2013-04-13 04:35:00,53.3,46.3,29.88,SE,144,1.0,3.0,77,0.00,,,0.00,Wunderground v.1.15,2013-04-13 09:35:00,
2013-04-13 04:40:00,53.3,46.6,29.88,SE,144,1.0,2.0,78,0.00,,,0.00,Wunderground v.1.15,2013-04-13 09:40:00,
2013-04-13 04:55:00,53.3,47.3,29.88,SE,144,0.0,1.0,80,0.00,,,0.00,Wunderground v.1.15,2013-04-13 09:55:00,
2013-04-13 05:05:00,53.2,47.8,29.88,SE,144,0.0,0.0,82,0.00,,,0.00,Wunderground v.1.15,2013-04-13 10:05:00,
2013-04-13 05:15:00,53.2,48.5,29.88,SE,144,1.0,1.0,84,0.00,,,0.00,Wunderground v.1.15,2013-04-13 10:15:00,
2013-04-13 05:20:00,53.2,48.8,29.88,SE,144,0.0,0.0,85,0.00,,,0.00,Wunderground v.1.15,2013-04-13 10:20:00,
2013-04-13 05:30:00,53.1,49.0,29.88,SE,144,0.0,0.0,86,0.00,,,0.00,Wunderground v.1.15,2013-04-13 10:30:00,
2013-04-13 05:35:00,53.1,49.0,29.88,SE,144,0.0,0.0,86,0.00,,,0.00,Wunderground v.1.15,2013-04-13 10:35:00,
2013-04-13 05:40:00,52.9,49.1,29.88,SE,144,0.0,0.0,87,0.00,,,0.00,Wunderground v.1.15,2013-04-13 10:40:00,
2013-04-13 05:55:00,52.9,49.4,29.88,SE,144,0.0,0.0,88,0.00,,,0.00,Wunderground v.1.15,2013-04-13 10:55:00,
2013-04-13 06:05:00,52.8,49.6,29.88,SE,144,0.0,0.0,89,0.00,,,0.00,Wunderground v.1.15,2013-04-13 11:05:00,
2013-04-13 06:15:00,52.8,49.6,29.88,SE,144,0.0,1.0,89,0.00,,,0.00,Wunderground v.1.15,2013-04-13 11:15:00,
2013-04-13 06:25:00,52.8,49.9,29.88,SE,144,0.0,1.0,90,0.00,,,0.00,Wunderground v.1.15,2013-04-13 11:25:00,
2013-04-13 06:35:00,52.8,50.2,29.88,SE,144,0.0,0.0,91,0.00,,,0.00,Wunderground v.1.15,2013-04-13 11:35:00,
2013-04-13 06:40:00,52.6,50.0,29.88,SE,144,0.0,0.0,91,0.00,,,0.00,Wunderground v.1.15,2013-04-13 11:40:00,
2013-04-13 06:50:00,52.6,50.0,29.89,SE,144,1.0,1.0,91,0.00,,,0.00,Wunderground v.1.15,2013-04-13 11:50:00,
2013-04-13 06:55:00,52.6,50.3,29.89,SE,144,0.0,1.0,92,0.00,,,0.00,Wunderground v.1.15,2013-04-13 11:55:00,
2013-04-13 07:05:00,52.5,50.2,29.89,SE,144,0.0,0.0,92,0.00,,,0.00,Wunderground v.1.15,2013-04-13 12:05:00,
2013-04-13 07:10:00,52.3,50.0,29.89,SE,144,0.0,0.0,92,0.00,,,0.00,Wunderground v.1.15,2013-04-13 12:10:00,
2013-04-13 07:20:00,52.3,50.0,29.89,SE,144,0.0,0.0,92,0.00,,,0.00,Wunderground v.1.15,2013-04-13 12:20:00,
2013-04-13 07:25:00,52.3,50.0,29.89,SE,144,0.0,0.0,92,0.00,,,0.00,Wunderground v.1.15,2013-04-13 12:25:00,
2013-04-13 07:35:00,52.8,50.8,29.89,SE,144,0.0,0.0,93,0.00,,,0.00,Wunderground v.1.15,2013-04-13 12:35:00,
2013-04-13 07:40:00,53.1,51.4,29.89,SE,144,0.0,0.0,94,0.00,,,0.00,Wunderground v.1.15,2013-04-13 12:40:00,
2013-04-13 07:50:00,53.3,51.6,29.90,SE,144,0.0,0.0,94,0.00,,,0.00,Wunderground v.1.15,2013-04-13 12:50:00,
2013-04-13 07:55:00,53.3,51.6,29.90,SE,144,0.0,0.0,94,0.00,,,0.00,Wunderground v.1.15,2013-04-13 12:55:00,
2013-04-13 08:05:00,53.3,51.6,29.91,SE,144,0.0,0.0,94,0.00,,,0.00,Wunderground v.1.15,2013-04-13 13:05:00,
2013-04-13 08:15:00,53.5,51.8,29.91,SE,144,0.0,0.0,94,0.00,,,0.00,Wunderground v.1.15,2013-04-13 13:15:00,
2013-04-13 08:25:00,53.9,52.5,29.92,SE,144,0.0,0.0,95,0.00,,,0.00,Wunderground v.1.15,2013-04-13 13:25:00,
2013-04-13 08:35:00,54.5,53.1,29.91,SE,144,0.0,0.0,95,0.00,,,0.00,Wunderground v.1.15,2013-04-13 13:35:00,
2013-04-13 08:40:00,55.4,54.3,29.92,SE,144,0.0,0.0,96,0.00,,,0.00,Wunderground v.1.15,2013-04-13 13:40:00,
2013-04-13 08:55:00,57.3,55.6,29.91,SE,144,1.0,2.0,94,0.00,,,0.00,Wunderground v.1.15,2013-04-13 13:55:00,
2013-04-13 09:05:00,58.3,55.7,29.91,SE,144,2.0,3.0,91,0.00,,,0.00,Wunderground v.1.15,2013-04-13 14:05:00,
2013-04-13 09:10:00,58.7,55.5,29.91,SE,144,1.0,1.0,89,0.00,,,0.00,Wunderground v.1.15,2013-04-13 14:10:00,
2013-04-13 09:20:00,59.5,55.3,29.91,SE,144,2.0,3.0,86,0.00,,,0.00,Wunderground v.1.15,2013-04-13 14:20:00,
2013-04-13 09:30:00,59.9,55.4,29.91,SE,144,2.0,3.0,85,0.00,,,0.00,Wunderground v.1.15,2013-04-13 14:30:00,
2013-04-13 09:40:00,61.0,55.5,29.90,SE,144,3.0,6.0,82,0.00,,,0.00,Wunderground v.1.15,2013-04-13 14:40:00,
2013-04-13 09:50:00,62.1,55.9,29.90,SE,144,4.0,7.0,80,0.00,,,0.00,Wunderground v.1.15,2013-04-13 14:50:00,
2013-04-13 09:55:00,62.9,55.6,29.90,SE,144,4.0,8.0,77,0.00,,,0.00,Wunderground v.1.15,2013-04-13 14:55:00,
2013-04-13 10:05:00,64.2,56.1,29.90,SE,145,3.0,7.0,75,0.00,,,0.00,Wunderground v.1.15,2013-04-13 15:05:00,
2013-04-13 10:15:00,64.7,56.2,29.90,SE,144,4.0,4.0,74,0.00,,,0.00,Wunderground v.1.15,2013-04-13 15:15:00,
2013-04-13 10:25:00,65.3,56.0,29.90,SE,145,4.0,6.0,72,0.00,,,0.00,Wunderground v.1.15,2013-04-13 15:25:00,
2013-04-13 10:35:00,65.5,55.5,29.90,SE,144,4.0,5.0,70,0.00,,,0.00,Wunderground v.1.15,2013-04-13 15:35:00,
2013-04-13 10:40:00,65.3,56.0,29.90,SE,144,4.0,5.0,72,0.00,,,0.00,Wunderground v.1.15,2013-04-13 15:40:00,
2013-04-13 10:50:00,65.8,56.1,29.89,SE,144,4.0,5.0,71,0.00,,,0.00,Wunderground v.1.15,2013-04-13 15:50:00,
2013-04-13 10:56:00,66.4,56.3,29.89,SE,144,3.0,6.0,70,0.00,,,0.00,Wunderground v.1.15,2013-04-13 15:56:00,
2013-04-13 11:05:00,67.8,56.4,29.89,SE,144,3.0,5.0,67,0.00,,,0.00,Wunderground v.1.15,2013-04-13 16:05:00,
2013-04-13 11:10:00,68.6,54.6,29.88,SE,144,3.0,3.0,61,0.00,,,0.00,Wunderground v.1.15,2013-04-13 16:10:00,
2013-04-13 11:25:00,70.1,54.2,29.87,SE,144,4.0,5.0,57,0.00,,,0.00,Wunderground v.1.15,2013-04-13 16:25:00,
2013-04-13 11:40:00,70.3,55.3,29.86,SE,143,4.0,4.0,59,0.00,,,0.00,Wunderground v.1.15,2013-04-13 16:40:00,
2013-04-13 11:50:00,70.3,51.3,29.87,SE,133,4.0,4.0,51,0.00,,,0.00,Wunderground v.1.15,2013-04-13 16:50:00,
2013-04-13 11:55:00,70.8,51.2,29.87,SE,131,5.0,5.0,50,0.00,,,0.00,Wunderground v.1.15,2013-04-13 16:55:00,
2013-04-13 12:05:00,71.8,50.5,29.87,ESE,119,6.0,6.0,47,0.00,,,0.00,Wunderground v.1.15,2013-04-13 17:05:00,
2013-04-13 12:10:00,72.5,51.1,29.86,ESE,119,5.0,5.0,47,0.00,,,0.00,Wunderground v.1.15,2013-04-13 17:10:00,
2013-04-13 12:20:00,72.7,51.3,29.86,ESE,121,5.0,5.0,47,0.00,,,0.00,Wunderground v.1.15,2013-04-13 17:20:00,
2013-04-13 12:25:00,72.7,52.4,29.86,ESE,121,5.0,5.0,49,0.00,,,0.00,Wunderground v.1.15,2013-04-13 17:25:00,
2013-04-13 12:35:00,72.7,52.4,29.85,ESE,121,3.0,4.0,49,0.00,,,0.00,Wunderground v.1.15,2013-04-13 17:35:00,
2013-04-13 12:40:00,73.2,50.6,29.85,ESE,120,4.0,6.0,45,0.00,,,0.00,Wunderground v.1.15,2013-04-13 17:40:00,
2013-04-13 13:00:00,74.9,48.3,29.84,ESE,119,5.0,6.0,39,0.00,,,0.00,Wunderground v.1.15,2013-04-13 18:00:00,
2013-04-13 13:10:00,75.1,51.1,29.83,ESE,120,5.0,5.0,43,0.00,,,0.00,Wunderground v.1.15,2013-04-13 18:10:00,
2013-04-13 13:20:00,74.9,49.6,29.83,ESE,117,4.0,4.0,41,0.00,,,0.00,Wunderground v.1.15,2013-04-13 18:20:00,
2013-04-13 13:25:00,75.1,49.1,29.83,ESE,114,3.0,7.0,40,0.00,,,0.00,Wunderground v.1.15,2013-04-13 18:25:00,
2013-04-13 13:30:00,75.3,50.0,29.83,ESE,114,4.0,6.0,41,0.00,,,0.00,Wunderground v.1.15,2013-04-13 18:30:00,
2013-04-13 13:35:00,75.4,50.7,29.82,ESE,103,6.0,6.0,42,0.00,,,0.00,Wunderground v.1.15,2013-04-13 18:35:00,
2013-04-13 13:40:00,75.6,52.1,29.82,ESE,102,5.0,6.0,44,0.00,,,0.00,Wunderground v.1.15,2013-04-13 18:40:00,
2013-04-13 13:45:00,76.3,48.8,29.82,ESE,107,5.0,7.0,38,0.00,,,0.00,Wunderground v.1.15,2013-04-13 18:45:00,
2013-04-13 13:50:00,76.5,48.3,29.81,ESE,107,5.0,5.0,37,0.00,,,0.00,Wunderground v.1.15,2013-04-13 18:50:00,
2013-04-13 13:55:00,76.3,50.2,29.81,ESE,104,4.0,6.0,40,0.00,,,0.00,Wunderground v.1.15,2013-04-13 18:55:00,
2013-04-13 14:05:00,75.4,50.1,29.81,ESE,102,4.0,7.0,41,0.00,,,0.00,Wunderground v.1.15,2013-04-13 19:05:00,
2013-04-13 14:10:00,75.1,47.8,29.81,ESE,102,5.0,5.0,38,0.00,,,0.00,Wunderground v.1.15,2013-04-13 19:10:00,
2013-04-13 14:20:00,75.1,45.6,29.81,ESE,102,6.0,6.0,35,0.00,,,0.00,Wunderground v.1.15,2013-04-13 19:20:00,
2013-04-13 14:25:00,76.0,45.6,29.81,ESE,102,6.0,6.0,34,0.00,,,0.00,Wunderground v.1.15,2013-04-13 19:25:00,
2013-04-13 14:35:00,76.8,47.1,29.80,ESE,102,4.0,4.0,35,0.00,,,0.00,Wunderground v.1.15,2013-04-13 19:35:00,
2013-04-13 14:40:00,76.8,47.8,29.80,ESE,102,3.0,3.0,36,0.00,,,0.00,Wunderground v.1.15,2013-04-13 19:40:00,
2013-04-13 14:50:00,76.1,46.5,29.80,ESE,104,5.0,8.0,35,0.00,,,0.00,Wunderground v.1.15,2013-04-13 19:50:00,
2013-04-13 14:55:00,75.4,47.3,29.80,ESE,104,5.0,8.0,37,0.00,,,0.00,Wunderground v.1.15,2013-04-13 19:55:00,
2013-04-13 15:05:00,74.9,47.6,29.79,ESE,109,5.0,10.0,38,0.00,,,0.00,Wunderground v.1.15,2013-04-13 20:05:00,
2013-04-13 15:10:00,74.4,46.4,29.79,ESE,109,5.0,8.0,37,0.00,,,0.00,Wunderground v.1.15,2013-04-13 20:10:00,
2013-04-13 15:20:00,73.2,44.6,29.79,ESE,103,6.0,6.0,36,0.00,,,0.00,Wunderground v.1.15,2013-04-13 20:20:00,
2013-04-13 15:25:00,72.7,45.6,29.79,ESE,104,5.0,10.0,38,0.00,,,0.00,Wunderground v.1.15,2013-04-13 20:25:00,
2013-04-13 15:35:00,72.0,46.3,29.78,ESE,107,5.0,6.0,40,0.00,,,0.00,Wunderground v.1.15,2013-04-13 20:35:00,
2013-04-13 15:40:00,71.8,44.8,29.77,ESE,107,4.0,6.0,38,0.00,,,0.00,Wunderground v.1.15,2013-04-13 20:40:00,
2013-04-13 15:50:00,72.1,47.7,29.77,ESE,113,3.0,3.0,42,0.00,,,0.00,Wunderground v.1.15,2013-04-13 20:50:00,
2013-04-13 15:55:00,72.5,48.1,29.77,ESE,116,3.0,3.0,42,0.00,,,0.00,Wunderground v.1.15,2013-04-13 20:55:00,
2013-04-13 16:05:00,73.2,49.4,29.76,ESE,116,3.0,5.0,43,0.00,,,0.00,Wunderground v.1.15,2013-04-13 21:05:00,
2013-04-13 16:10:00,73.0,50.4,29.76,ESE,116,3.0,6.0,45,0.00,,,0.00,Wunderground v.1.15,2013-04-13 21:10:00,
2013-04-13 16:20:00,72.5,50.5,29.75,ESE,120,5.0,5.0,46,0.00,,,0.00,Wunderground v.1.15,2013-04-13 21:20:00,
2013-04-13 16:25:00,72.5,51.7,29.75,ESE,116,5.0,5.0,48,0.00,,,0.00,Wunderground v.1.15,2013-04-13 21:25:00,
2013-04-13 16:35:00,72.1,51.9,29.75,ESE,113,3.0,6.0,49,0.00,,,0.00,Wunderground v.1.15,2013-04-13 21:35:00,
2013-04-13 16:40:00,72.0,51.2,29.74,ESE,112,2.0,3.0,48,0.00,,,0.00,Wunderground v.1.15,2013-04-13 21:40:00,
2013-04-13 16:50:00,71.6,52.0,29.74,ESE,110,3.0,3.0,50,0.00,,,0.00,Wunderground v.1.15,2013-04-13 21:50:00,
2013-04-13 16:55:00,71.5,51.9,29.75,ESE,110,2.0,5.0,50,0.00,,,0.00,Wunderground v.1.15,2013-04-13 21:55:00,
2013-04-13 17:05:00,71.3,51.7,29.75,ESE,112,3.0,7.0,50,0.00,,,0.00,Wunderground v.1.15,2013-04-13 22:05:00,
2013-04-13 17:10:00,71.1,51.5,29.75,ESE,109,4.0,4.0,50,0.00,,,0.00,Wunderground v.1.15,2013-04-13 22:10:00,
2013-04-13 17:20:00,70.8,51.8,29.75,ESE,109,2.0,2.0,51,0.00,,,0.00,Wunderground v.1.15,2013-04-13 22:20:00,
2013-04-13 17:25:00,70.6,52.1,29.75,ESE,109,2.0,2.0,52,0.00,,,0.00,Wunderground v.1.15,2013-04-13 22:25:00,
2013-04-13 17:35:00,70.4,49.2,29.75,ESE,110,2.0,2.0,47,0.00,,,0.00,Wunderground v.1.15,2013-04-13 22:35:00,
2013-04-13 17:40:00,70.3,49.1,29.75,ESE,110,1.0,1.0,47,0.00,,,0.00,Wunderground v.1.15,2013-04-13 22:40:00,
2013-04-13 17:50:00,70.3,50.8,29.75,ESE,110,1.0,1.0,50,0.00,,,0.00,Wunderground v.1.15,2013-04-13 22:50:00,
2013-04-13 17:55:00,70.3,50.8,29.74,ESE,110,1.0,1.0,50,0.00,,,0.00,Wunderground v.1.15,2013-04-13 22:55:00,
2013-04-13 18:05:00,70.4,51.9,29.74,ESE,110,2.0,2.0,52,0.00,,,0.00,Wunderground v.1.15,2013-04-13 23:05:00,
2013-04-13 18:10:00,70.4,50.9,29.75,ESE,112,2.0,2.0,50,0.00,,,0.00,Wunderground v.1.15,2013-04-13 23:10:00,
2013-04-13 18:20:00,70.4,50.3,29.74,ESE,112,2.0,2.0,49,0.00,,,0.00,Wunderground v.1.15,2013-04-13 23:20:00,
2013-04-13 18:25:00,70.6,51.1,29.74,ESE,112,2.0,2.0,50,0.00,,,0.00,Wunderground v.1.15,2013-04-13 23:25:00,
2013-04-13 18:35:00,70.1,52.7,29.75,ESE,110,2.0,3.0,54,0.00,,,0.00,Wunderground v.1.15,2013-04-13 23:35:00,
2013-04-13 18:40:00,69.8,53.4,29.75,ESE,110,3.0,3.0,56,0.00,,,0.00,Wunderground v.1.15,2013-04-13 23:40:00,
2013-04-13 18:50:00,69.4,53.0,29.75,ESE,110,0.0,0.0,56,0.00,,,0.00,Wunderground v.1.15,2013-04-13 23:50:00,
2013-04-13 18:55:00,69.3,54.8,29.75,ESE,110,0.0,0.0,60,0.00,,,0.00,Wunderground v.1.15,2013-04-13 23:55:00,
2013-04-13 19:05:00,68.8,54.3,29.75,ESE,110,0.0,5.0,60,0.00,,,0.00,Wunderground v.1.15,2013-04-14 00:05:00,
2013-04-13 19:10:00,68.6,53.7,29.75,ESE,110,0.0,0.0,59,0.00,,,0.00,Wunderground v.1.15,2013-04-14 00:10:00,
2013-04-13 19:20:00,68.1,54.1,29.75,ESE,110,0.0,0.0,61,0.00,,,0.00,Wunderground v.1.15,2013-04-14 00:20:00,
2013-04-13 19:25:00,67.8,53.9,29.75,ESE,110,0.0,0.0,61,0.00,,,0.00,Wunderground v.1.15,2013-04-14 00:25:00,
2013-04-13 19:35:00,67.3,53.8,29.75,ESE,110,0.0,0.0,62,0.00,,,0.00,Wunderground v.1.15,2013-04-14 00:35:00,
2013-04-13 19:40:00,66.9,53.9,29.75,ESE,110,0.0,0.0,63,0.00,,,0.00,Wunderground v.1.15,2013-04-14 00:40:00,
2013-04-13 19:50:00,66.4,54.3,29.75,ESE,110,0.0,0.0,65,0.00,,,0.00,Wunderground v.1.15,2013-04-14 00:50:00,
2013-04-13 19:55:00,66.3,54.2,29.75,ESE,110,0.0,0.0,65,0.00,,,0.00,Wunderground v.1.15,2013-04-14 00:55:00,
2013-04-13 20:05:00,65.3,54.1,29.74,ESE,110,0.0,0.0,67,0.00,,,0.00,Wunderground v.1.15,2013-04-14 01:05:00,
2013-04-13 20:10:00,64.8,53.6,29.74,ESE,110,0.0,0.0,67,0.00,,,0.00,Wunderground v.1.15,2013-04-14 01:10:00,
2013-04-13 20:20:00,64.0,53.6,29.74,ESE,110,0.0,0.0,69,0.00,,,0.00,Wunderground v.1.15,2013-04-14 01:20:00,
2013-04-13 20:25:00,63.7,53.7,29.74,ESE,110,0.0,0.0,70,0.00,,,0.00,Wunderground v.1.15,2013-04-14 01:25:00,
2013-04-13 20:35:00,63.1,53.5,29.75,ESE,110,0.0,0.0,71,0.00,,,0.00,Wunderground v.1.15,2013-04-14 01:35:00,
2013-04-13 20:40:00,62.7,53.5,29.75,ESE,110,0.0,0.0,72,0.00,,,0.00,Wunderground v.1.15,2013-04-14 01:40:00,
2013-04-13 20:50:00,62.0,52.9,29.75,ESE,110,0.0,0.0,72,0.00,,,0.00,Wunderground v.1.15,2013-04-14 01:50:00,
2013-04-13 20:55:00,61.5,52.4,29.75,ESE,110,0.0,0.0,72,0.00,,,0.00,Wunderground v.1.15,2013-04-14 01:55:00,
2013-04-13 21:05:00,61.0,52.7,29.75,ESE,110,0.0,0.0,74,0.00,,,0.00,Wunderground v.1.15,2013-04-14 02:05:00,
2013-04-13 21:10:00,60.7,52.4,29.76,ESE,110,0.0,0.0,74,0.00,,,0.00,Wunderground v.1.15,2013-04-14 02:10:00,
2013-04-13 21:20:00,60.5,52.9,29.76,ESE,110,0.0,2.0,76,0.00,,,0.00,Wunderground v.1.15,2013-04-14 02:20:00,
2013-04-13 21:25:00,60.5,52.2,29.76,ESE,110,0.0,3.0,74,0.00,,,0.00,Wunderground v.1.15,2013-04-14 02:25:00,
2013-04-13 21:35:00,61.3,51.0,29.77,ESE,110,2.0,3.0,69,0.00,,,0.00,Wunderground v.1.15,2013-04-14 02:35:00,
2013-04-13 21:40:00,61.8,50.7,29.77,ESE,110,2.0,2.0,67,0.00,,,0.00,Wunderground v.1.15,2013-04-14 02:40:00,
2013-04-13 21:50:00,62.4,51.3,29.77,ESE,110,1.0,1.0,67,0.00,,,0.00,Wunderground v.1.15,2013-04-14 02:50:00,
2013-04-13 21:55:00,62.6,51.5,29.78,ESE,110,1.0,1.0,67,0.00,,,0.00,Wunderground v.1.15,2013-04-14 02:55:00,
2013-04-13 22:05:00,62.3,51.6,29.78,ESE,110,0.0,1.0,68,0.00,,,0.00,Wunderground v.1.15,2013-04-14 03:05:00,
2013-04-13 22:10:00,62.3,51.2,29.78,ESE,110,0.0,0.0,67,0.00,,,0.00,Wunderground v.1.15,2013-04-14 03:10:00,
2013-04-13 22:20:00,62.6,51.1,29.78,ESE,110,0.0,0.0,66,0.00,,,0.00,Wunderground v.1.15,2013-04-14 03:20:00,
2013-04-13 22:25:00,62.9,51.4,29.79,ESE,110,1.0,1.0,66,0.00,,,0.00,Wunderground v.1.15,2013-04-14 03:25:00,
2013-04-13 22:35:00,63.2,51.6,29.78,ESE,110,2.0,4.0,66,0.00,,,0.00,Wunderground v.1.15,2013-04-14 03:35:00,
2013-04-13 22:40:00,63.4,52.2,29.78,ESE,110,3.0,5.0,67,0.00,,,0.00,Wunderground v.1.15,2013-04-14 03:40:00,
2013-04-13 22:50:00,63.7,52.1,29.78,ESE,110,3.0,4.0,66,0.00,,,0.00,Wunderground v.1.15,2013-04-14 03:50:00,
2013-04-13 22:55:00,63.7,52.1,29.78,ESE,112,3.0,4.0,66,0.00,,,0.00,Wunderground v.1.15,2013-04-14 03:55:00,
2013-04-13 23:00:00,63.7,52.5,29.78,ESE,112,2.0,3.0,67,0.00,,,0.00,Wunderground v.1.15,2013-04-14 04:00:00,
2013-04-13 23:05:00,63.7,52.5,29.78,ESE,112,1.0,3.0,67,0.00,,,0.00,Wunderground v.1.15,2013-04-14 04:05:00,
2013-04-13 23:10:00,63.5,52.7,29.78,ESE,112,1.0,1.0,68,0.00,,,0.00,Wunderground v.1.15,2013-04-14 04:10:00,
2013-04-13 23:15:00,63.4,52.7,29.78,ESE,112,1.0,1.0,68,0.00,,,0.00,Wunderground v.1.15,2013-04-14 04:15:00,
2013-04-13 23:20:00,63.4,52.7,29.78,ESE,112,2.0,2.0,68,0.00,,,0.00,Wunderground v.1.15,2013-04-14 04:20:00,
2013-04-13 23:25:00,63.4,52.7,29.77,ESE,112,2.0,5.0,68,0.00,,,0.00,Wunderground v.1.15,2013-04-14 04:25:00,
2013-04-13 23:35:00,63.2,52.5,29.76,ESE,112,2.0,4.0,68,0.00,,,0.00,Wunderground v.1.15,2013-04-14 04:35:00,
2013-04-13 23:40:00,63.2,52.9,29.76,ESE,112,2.0,2.0,69,0.00,,,0.00,Wunderground v.1.15,2013-04-14 04:40:00,
2013-04-13 23:50:00,63.1,52.8,29.76,ESE,112,3.0,3.0,69,0.00,,,0.00,Wunderground v.1.15,2013-04-14 04:50:00,
2013-04-13 23:55:00,63.1,53.2,29.76,ESE,113,2.0,3.0,70,0.00,,,0.00,Wunderground v.1.15,2013-04-14 04:55:00,